Change the Weather History Date:

Sunday, June 30, 2013

  Actual Average Record
Temperature  
Mean Temperature 72 °F -  
Max Temperature 82 °F 76 °F 87 °F (1997)
Min Temperature 62 °F 48 °F 44 °F (2002)
Cooling Degree Days 7    
Growing Degree Days 22 (Base 50)    
Moisture  
Dew Point 62 °F    
Average Humidity 76    
Maximum Humidity 94    
Minimum Humidity 45    
Precipitation  
Precipitation 0.07 in - - ()
Sea Level Pressure  
Sea Level Pressure 29.81 in    
Wind  
Wind Speed 2 mph (WSW)    
Max Wind Speed 13 mph    
Max Gust Speed 18 mph    
Visibility 7 miles    
Events Fog , Rain    
Averages and records for this station are not official NWS values.
T = Trace of Precipitation, MM = Missing Value Source: NWS Daily Summary

Daily Weather History Graph

Daily Weather History Graph

Search for Another Location

Airport or City:

Trip Planner

Search our weather history database for the weather conditions in past years. The results will help you decide how hot, cold, wet, or windy it might be!

Date:

Astronomy

Jun. 30, 2013 Rise Set
Actual Time 5:05 AM EDT 8:34 PM EDT
Civil Twilight 4:28 AM EDT 9:10 PM EDT
Nautical Twilight 3:40 AM EDT 9:58 PM EDT
Astronomical Twilight 2:39 AM EDT 11:00 PM EDT
Moon 12:14 AM EDT (6/30) 1:35 PM EDT (6/30)
Length of Visible Light 16h 41m
Length of Day
15h 28m
Last Quarter, 45% of the Moon is Illuminated
Jun 30
Last Quarter
Jul 8
New
Jul 15
First Quarter
Jul 22
Full
Jul 29
Last Quarter

Hourly Weather History & Observations

Time (EDT) Temp. Heat Index Dew Point Humidity Pressure Visibility Wind Dir Wind Speed Gust Speed Precip Events Conditions
12:52 AM 64.0 °F - 61.0 °F 90% 29.70 in 8.0 mi Calm Calm - N/A   Overcast
1:52 AM 64.9 °F - 62.1 °F 90% 29.70 in 10.0 mi Calm Calm - N/A   Overcast
2:52 AM 64.9 °F - 61.0 °F 87% 29.71 in 10.0 mi Calm Calm - N/A   Overcast
3:52 AM 64.0 °F - 61.0 °F 90% 29.72 in 5.0 mi Calm Calm - 0.01 in   Mostly Cloudy
4:52 AM 62.1 °F - 59.0 °F 90% 29.74 in 2.0 mi Calm Calm - N/A   Scattered Clouds
4:55 AM 62.6 °F - 59.0 °F 88% 29.75 in 1.0 mi Calm Calm - N/A   Mostly Cloudy
5:02 AM 62.6 °F - 59.0 °F 88% 29.75 in 0.2 mi Calm Calm - N/A Fog Fog
5:37 AM 62.6 °F - 60.8 °F 94% 29.76 in 1.5 mi Calm Calm - N/A   Overcast
5:47 AM 62.6 °F - 59.0 °F 88% 29.77 in 0.8 mi Calm Calm - N/A   Overcast
5:52 AM 62.1 °F - 60.1 °F 93% 29.76 in 0.8 mi Calm Calm - N/A   Overcast
5:56 AM 62.6 °F - 60.8 °F 94% 29.78 in 1.2 mi Calm Calm - N/A   Overcast
6:08 AM 62.6 °F - 60.8 °F 94% 29.78 in 3.0 mi Calm Calm - N/A   Mostly Cloudy
6:52 AM 66.0 °F - 63.0 °F 90% 29.78 in 8.0 mi Calm Calm - N/A   Scattered Clouds
7:52 AM 69.1 °F - 63.0 °F 81% 29.81 in 10.0 mi Calm Calm - N/A   Mostly Cloudy
8:17 AM 71.6 °F - 62.6 °F 73% 29.82 in 10.0 mi Calm Calm - N/A   Scattered Clouds
8:39 AM 71.6 °F - 62.6 °F 73% 29.83 in 10.0 mi WSW 5.8 mph - N/A   Mostly Cloudy
8:52 AM 72.0 °F - 63.0 °F 73% 29.83 in 10.0 mi West 5.8 mph - N/A   Mostly Cloudy
9:30 AM 73.4 °F - 62.6 °F 69% 29.84 in 10.0 mi Variable 4.6 mph - N/A   Scattered Clouds
9:52 AM 73.9 °F - 60.1 °F 62% 29.83 in 10.0 mi SSW 4.6 mph - N/A   Partly Cloudy
10:52 AM 75.9 °F - 59.0 °F 56% 29.83 in 10.0 mi WNW 6.9 mph - N/A   Partly Cloudy
11:52 AM 79.0 °F - 57.9 °F 48% 29.83 in 10.0 mi SSW 5.8 mph - N/A   Clear
12:52 PM 80.1 °F 80.4 °F 57.0 °F 45% 29.83 in 10.0 mi West 12.7 mph 18.4 mph N/A   Partly Cloudy
1:52 PM 81.0 °F 81.7 °F 61.0 °F 50% 29.83 in 10.0 mi Variable 3.5 mph - N/A   Mostly Cloudy
2:52 PM 81.0 °F 81.6 °F 60.1 °F 49% 29.83 in 10.0 mi SW 8.1 mph - N/A   Mostly Cloudy
3:52 PM 80.1 °F 81.2 °F 62.1 °F 54% 29.83 in 10.0 mi West 4.6 mph - N/A   Overcast
4:52 PM 82.0 °F 83.0 °F 62.1 °F 51% 29.83 in 10.0 mi WNW 6.9 mph - N/A   Partly Cloudy
5:52 PM 82.0 °F 82.7 °F 61.0 °F 49% 29.84 in 10.0 mi NW 4.6 mph - N/A   Clear
6:52 PM 80.1 °F 81.5 °F 63.0 °F 56% 29.86 in 10.0 mi Calm Calm - N/A   Clear
7:52 PM 77.0 °F - 68.0 °F 74% 29.87 in 10.0 mi South 3.5 mph - N/A   Overcast
8:52 PM 68.0 °F - 64.0 °F 87% 29.91 in 10.0 mi West 9.2 mph - 0.02 in Rain Light Rain
9:52 PM 69.1 °F - 64.9 °F 87% 29.93 in 9.0 mi Calm Calm - 0.04 in Rain Light Rain
10:52 PM 68.0 °F - 64.9 °F 90% 29.94 in 7.0 mi Calm Calm - 0.00 in   Mostly Cloudy
11:52 PM 68.0 °F - 64.9 °F 90% 29.94 in 5.0 mi Calm Calm - N/A   Scattered Clouds